Location: �mondeville
(49.4591°N, 1.3431°W)
Time: 19:18:31
(UTC+00:00)

SJ-12 - Pass Details

Date: 22 October 2019
Orbit: 569 x 585 km, 97.6° (Epoch: 19 November)

Event Time Altitude Azimuth Distance (km) Brightness Sun altitude
Rises 05:44:59 0° 11° (N) 2,797 7.5 -9.1°
Reaches altitude 10° 05:47:09 10° 8° (N) 1,896 6.6 -8.8°
Maximum altitude 05:51:13 67° 287° (WNW) 631 3.9 -8.1°
Drops below altitude 10° 05:55:17 10° 205° (SSW) 1,890 6.4 -7.4°
Sets 05:57:27 0° 202° (SSW) 2,787 7.3 -7.1°
